Location: Winthrop
(48.4780°N, 120.1850°W)
Time: 10:26:55
(UTC-07:00)

STARS - Visible Passes

Search period start: 17 May 2022 00:00
Search period end: 27 May 2022 00:00
Orbit: 622 x 637 km, 98.2° (Epoch: 17 May)

Date Brightness Start Highest point End Pass type
(mag) Time Alt. Az. Time Alt. Az. Time Alt. Az.
17 May ? 00:20:31 10° N 00:24:43 45° WNW 00:26:17 31° WSW visible
17 May ? 23:04:35 10° NNE 23:08:36 33° E 23:09:25 31° ESE visible
18 May ? 00:40:59 10° N 00:44:49 30° WNW 00:46:48 21° WSW visible
18 May ? 23:24:35 10° NNE 23:28:55 52° E 23:29:56 42° SE visible
19 May ? 01:01:36 10° NNW 01:04:51 20° WNW 01:07:18 13° W visible
19 May ? 23:44:43 10° NNE 23:49:10 82° ESE 23:50:26 46° S visible
20 May ? 01:22:31 10° NNW 01:24:50 14° WNW 01:27:08 10° W visible
20 May ? 22:29:58 10° NE 22:32:39 16° E 22:33:34 15° ESE visible
21 May ? 00:04:58 10° N 00:09:21 64° WNW 00:10:56 37° SW visible
21 May ? 22:49:27 10° NE 22:53:03 24° E 22:54:04 22° ESE visible
22 May ? 00:25:19 10° N 00:29:28 41° WNW 00:31:26 26° WSW visible
22 May ? 23:09:17 10° NNE 23:13:23 36° E 23:14:32 31° SE visible
23 May ? 00:45:48 10° N 00:49:32 28° WNW 00:51:55 17° WSW visible
23 May ? 23:29:17 10° NNE 23:33:40 57° E 23:35:01 39° SSE visible
24 May ? 01:06:26 10° NNW 01:09:32 19° WNW 01:12:23 11° WSW visible
24 May ? 22:15:49 10° ENE 22:16:57 11° E 22:18:04 10° ESE visible
24 May ? 23:49:26 10° NNE 23:53:53 90° ESE 23:55:30 39° SSW visible
25 May ? 01:27:26 10° NNW 01:29:29 13° WNW 01:31:32 10° W visible
25 May ? 22:34:29 10° NE 22:37:23 17° E 22:38:36 15° ESE visible
26 May ? 00:09:40 10° N 00:14:02 58° WNW 00:15:58 31° SW visible
26 May ? 22:54:02 10° NE 22:57:46 26° E 22:59:04 22° ESE visible
